Weather History for KEWB - March, 2012

Change the Weather History Date:

Sunday, March 11, 2012

  Actual Average Record
Temperature  
Mean Temperature 36 °F -  
Max Temperature 48 °F 47 °F 66 °F (1968)
Min Temperature 23 °F 30 °F 11 °F (1960)
Degree Days  
Heating Degree Days 30    
Moisture  
Dew Point 29 °F    
Average Humidity 67    
Maximum Humidity 88    
Minimum Humidity 43    
Precipitation  
Precipitation 0.00 in - - ()
Sea Level Pressure  
Sea Level Pressure 30.40 in    
Wind  
Wind Speed 7 mph (SW)    
Max Wind Speed 24 mph    
Max Gust Speed 39 mph    
Visibility 10 miles    
Events      
Averages and records for this station are not official NWS values.
T = Trace of Precipitation, MM = Missing Value Source: NWS Daily Summary

Daily Weather History Graph

Daily Weather History Graph

Search for Another Location

Airport or City:

Trip Planner

Search our weather history database for the weather conditions in past years. The results will help you decide how hot, cold, wet, or windy it might be!

Date:

Astronomy

Mar. 11, 2012 Rise Set
Actual Time 7:01 AM EDT 6:46 PM EDT
Civil Twilight 6:33 AM EDT 7:14 PM EDT
Nautical Twilight 6:01 AM EDT 7:46 PM EDT
Astronomical Twilight 5:29 AM EDT 8:18 PM EDT
Moon 11:11 PM EDT (3/11) 8:31 AM EDT (3/11)
Length of Visible Light 12h 40m
Length of Day
11h 44m
Waning Gibbous, 85% of the Moon is Illuminated
Mar 11
Waning Gibbous
Mar 14
Last Quarter
Mar 22
New
Mar 30
First Quarter
Apr 6
Full

Hourly Weather History & Observations

Time (EDT) Temp. Windchill Dew Point Humidity Pressure Visibility Wind Dir Wind Speed Gust Speed Precip Events Conditions
12:53 AM 23.0 °F - 19.9 °F 88% 30.53 in 10.0 mi Calm Calm - N/A   Clear
1:53 AM 23.0 °F - 19.9 °F 88% 30.52 in 9.0 mi Calm Calm - N/A   Clear
3:53 AM 24.1 °F - 19.9 °F 84% 30.50 in 10.0 mi Calm Calm - N/A   Clear
4:53 AM 24.1 °F - 21.0 °F 88% 30.51 in 7.0 mi Calm Calm - N/A   Mostly Cloudy
5:53 AM 26.1 °F - 21.0 °F 81% 30.51 in 10.0 mi Calm Calm - N/A   Mostly Cloudy
6:53 AM 26.1 °F - 23.0 °F 88% 30.50 in 10.0 mi Calm Calm - N/A   Clear
8:53 AM 39.9 °F 33.9 °F 27.0 °F 60% 30.49 in 10.0 mi SW 9.2 mph - N/A   Clear
9:53 AM 43.0 °F 34.5 °F 24.1 °F 47% 30.48 in 10.0 mi SW 19.6 mph 28.8 mph N/A   Clear
10:53 AM 46.0 °F 39.0 °F 26.1 °F 46% 30.46 in 10.0 mi SW 17.3 mph 39.1 mph N/A   Clear
11:53 AM 48.9 °F - 27.0 °F 43% 30.44 in 10.0 mi SW 16.1 mph 23.0 mph N/A   Clear
12:53 PM 48.9 °F - 28.9 °F 46% 30.41 in 10.0 mi SSW 20.7 mph 29.9 mph N/A   Clear
1:53 PM 48.9 °F - 30.0 °F 48% 30.38 in 10.0 mi SSW 24.2 mph 29.9 mph N/A   Clear
2:53 PM 48.9 °F - 28.9 °F 46% 30.35 in 10.0 mi SW 17.3 mph 27.6 mph N/A   Clear
3:53 PM 48.9 °F - 30.0 °F 48% 30.33 in 10.0 mi SW 19.6 mph 26.5 mph N/A   Clear
4:53 PM 46.9 °F - 32.0 °F 56% 30.32 in 10.0 mi SW 15.0 mph 28.8 mph N/A   Clear
5:53 PM 46.0 °F 40.2 °F 33.1 °F 61% 30.31 in 10.0 mi SW 12.7 mph 20.7 mph N/A   Clear
6:53 PM 44.1 °F 38.1 °F 35.1 °F 71% 30.31 in 10.0 mi SW 11.5 mph - N/A   Clear
7:53 PM 44.1 °F 40.1 °F 35.1 °F 71% 30.32 in 10.0 mi SW 6.9 mph 18.4 mph N/A   Clear
8:53 PM 43.0 °F 37.7 °F 35.1 °F 74% 30.32 in 10.0 mi WSW 9.2 mph - N/A   Clear
9:53 PM 42.1 °F 37.1 °F 35.1 °F 76% 30.32 in 10.0 mi WSW 8.1 mph - N/A   Clear
10:53 PM 41.0 °F 37.1 °F 34.0 °F 76% 30.32 in 10.0 mi SW 5.8 mph - N/A   Clear
11:53 PM 42.1 °F 37.7 °F 36.0 °F 79% 30.30 in 10.0 mi SW 6.9 mph - N/A   Clear
12:53 AM 42.1 °F 37.7 °F 36.0 °F 79% 30.29 in 10.0 mi WSW 6.9 mph - N/A   Clear